,,PA_Meas_PMT16A,,PR_Meas_QMR101_102,,RH_Meas_QMH101,,SR_Meas_QMS101,,TA_Meas_QMH101,,GenWind,,GenWind,
time,status,PA,status,PR,status,RH,status,SR,status,TA,status,DirAvg,status,SpdAvg,
2013-12-06, 00:00:05,VALID,915.059,VALID,0,VALID,96.0398,VALID,0,VALID,20.465,VALID,13,VALID,0,
2013-12-06, 00:01:05,VALID,915.055,VALID,0,VALID,96.055,VALID,0,VALID,20.4439,VALID,13,VALID,0,
2013-12-06, 00:02:05,VALID,915.082,VALID,0,VALID,96.0703,VALID,0,VALID,20.4244,VALID,13,VALID,0,
2013-12-06, 00:03:05,VALID,915.078,VALID,0,VALID,96.055,VALID,0,VALID,20.4259,VALID,13,VALID,0,
2013-12-06, 00:04:05,VALID,915.049,VALID,0,VALID,96.0703,VALID,0,VALID,20.4259,VALID,13,VALID,0,
2013-12-06, 00:05:05,VALID,915.034,VALID,0,VALID,96.0627,VALID,0,VALID,20.4064,VALID,13,VALID,0,
2013-12-06, 00:06:05,VALID,915,VALID,0,VALID,96.0703,VALID,0,VALID,20.4064,VALID,13,VALID,0,
2013-12-06, 00:07:05,VALID,914.966,VALID,0,VALID,96.0703,VALID,0,VALID,20.3869,VALID,13,VALID,0,
2013-12-06, 00:08:05,VALID,914.928,VALID,0,VALID,96.0855,VALID,0,VALID,20.3854,VALID,13,VALID,0,
2013-12-06, 00:09:05,VALID,914.914,VALID,0,VALID,96.0932,VALID,0,VALID,20.4064,VALID,13,VALID,0,
2013-12-06, 00:10:05,VALID,914.923,VALID,0,VALID,96.0779,VALID,0,VALID,20.3854,VALID,13,VALID,0,
2013-12-06, 00:11:05,VALID,914.914,VALID,0,VALID,96.1084,VALID,0,VALID,20.3854,VALID,13,VALID,0,
2013-12-06, 00:12:04,VALID,914.918,VALID,0,VALID,96.1084,VALID,0,VALID,20.4049,VALID,13,VALID,0,
2013-12-06, 00:13:04,VALID,914.896,VALID,0,VALID,96.1084,VALID,0,VALID,20.4049,VALID,13,VALID,0,
2013-12-06, 00:14:04,VALID,914.933,VALID,0,VALID,96.0779,VALID,0,VALID,20.4064,VALID,13,VALID,0,
2013-12-06, 00:15:04,VALID,914.951,VALID,0,VALID,96.1236,VALID,0,VALID,20.4049,VALID,13,VALID,0,
2013-12-06, 00:16:04,VALID,914.937,VALID,0,VALID,96.0932,VALID,0,VALID,20.4259,VALID,13,VALID,0,
2013-12-06, 00:17:04,VALID,914.93,VALID,0,VALID,96.0855,VALID,0,VALID,20.3854,VALID,13,VALID,0,
2013-12-06, 00:18:04,VALID,914.896,VALID,0,VALID,96.0932,VALID,0,VALID,20.4064,VALID,13,VALID,0,
2013-12-06, 00:19:04,VALID,914.864,VALID,0,VALID,96.0703,VALID,0,VALID,20.3854,VALID,13,VALID,0,
2013-12-06, 00:20:04,VALID,914.846,VALID,0,VALID,96.1008,VALID,0,VALID,20.4064,VALID,13,VALID,0,
2013-12-06, 00:21:04,VALID,914.808,VALID,0,VALID,96.0932,VALID,0,VALID,20.4064,VALID,13,VALID,0,
2013-12-06, 00:22:04,VALID,914.817,VALID,0,VALID,96.0855,VALID,0,VALID,20.3869,VALID,13,VALID,0,
2013-12-06, 00:23:04,VALID,914.798,VALID,0,VALID,96.1008,VALID,0,VALID,20.3869,VALID,13,VALID,0,
2013-12-06, 00:24:04,VALID,914.815,VALID,0,VALID,96.0932,VALID,0,VALID,20.3659,VALID,13,VALID,0,
2013-12-06, 00:25:04,VALID,914.852,VALID,0,VALID,96.0779,VALID,0,VALID,20.3674,VALID,13,VALID,0,
2013-12-06, 00:26:04,VALID,914.836,VALID,0,VALID,96.0474,VALID,0,VALID,20.3284,VALID,13,VALID,0,
2013-12-06, 00:27:04,VALID,914.874,VALID,0,VALID,96.0245,VALID,0,VALID,20.2879,VALID,13,VALID,0,
2013-12-06, 00:28:04,VALID,914.86,VALID,0,VALID,96.0703,VALID,0,VALID,20.2684,VALID,13,VALID,0,
2013-12-06, 00:29:04,VALID,914.875,VALID,0,VALID,96.0779,VALID,0,VALID,20.2489,VALID,13,VALID,0,
2013-12-06, 00:30:04,VALID,914.886,VALID,0,VALID,96.1313,VALID,0,VALID,20.2909,VALID,13,VALID,0,
2013-12-06, 00:31:04,VALID,914.857,VALID,0,VALID,96.1541,VALID,0,VALID,20.2714,VALID,13,VALID,0,
2013-12-06, 00:32:04,VALID,914.832,VALID,0,VALID,96.1618,VALID,0,VALID,20.2309,VALID,13,VALID,0,
2013-12-06, 00:33:04,VALID,914.852,VALID,0,VALID,96.1694,VALID,0,VALID,20.2114,VALID,13,VALID,0,
2013-12-06, 00:34:04,VALID,914.854,VALID,0,VALID,96.1923,VALID,0,VALID,20.1903,VALID,13,VALID,0,
2013-12-06, 00:35:04,VALID,914.86,VALID,0,VALID,96.2075,VALID,0,VALID,20.1919,VALID,13,VALID,0,
2013-12-06, 00:36:04,VALID,914.863,VALID,0,VALID,96.2151,VALID,0,VALID,20.1919,VALID,13,VALID,0,
2013-12-06, 00:37:04,VALID,914.87,VALID,0,VALID,96.2533,VALID,0,VALID,20.2129,VALID,13,VALID,0,
2013-12-06, 00:38:04,VALID,914.875,VALID,0,VALID,96.2456,VALID,0,VALID,20.1934,VALID,13,VALID,0,
2013-12-06, 00:39:04,VALID,914.858,VALID,0,VALID,96.2533,VALID,0,VALID,20.1919,VALID,13,VALID,0,
2013-12-06, 00:40:04,VALID,914.87,VALID,0,VALID,96.2609,VALID,0,VALID,20.1708,VALID,13,VALID,0,
2013-12-06, 00:41:04,VALID,914.875,VALID,0,VALID,96.2761,VALID,0,VALID,20.1724,VALID,13,VALID,0,
2013-12-06, 00:42:04,VALID,914.854,VALID,0,VALID,96.2075,VALID,0,VALID,20.1139,VALID,13,VALID,0,
2013-12-06, 00:43:04,VALID,914.843,VALID,0,VALID,96.1541,VALID,0,VALID,20.0749,VALID,13,VALID,0,
2013-12-06, 00:44:04,VALID,914.815,VALID,0,VALID,96.1999,VALID,0,VALID,20.0538,VALID,13,VALID,0,
2013-12-06, 00:45:04,VALID,914.858,VALID,0,VALID,96.2151,VALID,0,VALID,20.0538,VALID,13,VALID,0,
2013-12-06, 00:46:04,VALID,914.844,VALID,0,VALID,96.2609,VALID,0,VALID,20.0749,VALID,13,VALID,0,
2013-12-06, 00:47:04,VALID,914.849,VALID,0,VALID,96.2837,VALID,0,VALID,20.0749,VALID,13,VALID,0,
2013-12-06, 00:48:04,VALID,914.885,VALID,0,VALID,96.2837,VALID,0,VALID,20.0343,VALID,13,VALID,0,
2013-12-06, 00:49:04,VALID,914.869,VALID,0,VALID,96.3066,VALID,0,VALID,20.0343,VALID,13,VALID,0,
2013-12-06, 00:50:04,VALID,914.865,VALID,0,VALID,96.3066,VALID,0,VALID,20.0538,VALID,13,VALID,0,
2013-12-06, 00:51:04,VALID,914.858,VALID,0,VALID,96.3295,VALID,0,VALID,20.0733,VALID,13,VALID,0,
2013-12-06, 00:52:04,VALID,914.795,VALID,0,VALID,96.3371,VALID,0,VALID,20.0944,VALID,13,VALID,0,
2013-12-06, 00:53:04,VALID,914.832,VALID,0,VALID,96.36,VALID,0,VALID,20.0733,VALID,13,VALID,0,
2013-12-06, 00:54:04,VALID,914.791,VALID,0,VALID,96.3752,VALID,0,VALID,20.0733,VALID,13,VALID,0,
2013-12-06, 00:55:04,VALID,914.787,VALID,0,VALID,96.3905,VALID,0,VALID,20.1334,VALID,13,VALID,0,
2013-12-06, 00:56:04,VALID,914.771,VALID,0,VALID,96.4286,VALID,0,VALID,20.1529,VALID,13,VALID,0,
2013-12-06, 00:57:04,VALID,914.744,VALID,0,VALID,96.4438,VALID,0,VALID,20.1529,VALID,13,VALID,0,
2013-12-06, 00:58:04,VALID,914.763,VALID,0,VALID,96.4515,VALID,0,VALID,20.1739,VALID,13,VALID,0,
2013-12-06, 00:59:04,VALID,914.762,VALID,0,VALID,96.4438,VALID,0,VALID,20.1529,VALID,13,VALID,0,
2013-12-06, 01:00:04,VALID,914.722,VALID,0,VALID,96.4591,VALID,0,VALID,20.1529,VALID,14,VALID,0,
2013-12-06, 01:01:04,VALID,914.728,VALID,0,VALID,96.4591,VALID,0,VALID,20.1318,VALID,15,VALID,0,
2013-12-06, 01:02:04,VALID,914.696,VALID,0,VALID,96.4362,VALID,0,VALID,20.0928,VALID,14,VALID,0,
2013-12-06, 01:03:04,VALID,914.711,VALID,0,VALID,96.4515,VALID,0,VALID,20.1139,VALID,15,VALID,0,
2013-12-06, 01:04:04,VALID,914.686,VALID,0,VALID,96.4591,VALID,0,VALID,20.1139,VALID,15,VALID,0,
2013-12-06, 01:05:04,VALID,914.663,VALID,0,VALID,96.4591,VALID,0,VALID,20.0944,VALID,15,VALID,0,
2013-12-06, 01:06:04,VALID,914.662,VALID,0,VALID,96.4667,VALID,0,VALID,20.0538,VALID,44,VALID,0,
2013-12-06, 01:07:04,VALID,914.639,VALID,0,VALID,96.4515,VALID,0,VALID,20.0553,VALID,44,VALID,0,
2013-12-06, 01:08:04,VALID,914.633,VALID,0,VALID,96.4591,VALID,0,VALID,20.0553,VALID,44,VALID,0,
2013-12-06, 01:09:04,VALID,914.638,VALID,0,VALID,96.4819,VALID,0,VALID,20.0553,VALID,44,VALID,0,
2013-12-06, 01:10:04,VALID,914.635,VALID,0,VALID,96.5124,VALID,0,VALID,20.0553,VALID,44,VALID,0,
2013-12-06, 01:11:04,VALID,914.625,VALID,0,VALID,96.5277,VALID,0,VALID,20.0358,VALID,44,VALID,0,
2013-12-06, 01:12:04,VALID,914.605,VALID,0,VALID,96.5353,VALID,0,VALID,20.0569,VALID,44,VALID,0,
2013-12-06, 01:13:04,VALID,914.581,VALID,0,VALID,96.5277,VALID,0.107441,VALID,20.0343,VALID,44,VALID,0,
2013-12-06, 01:14:04,VALID,914.574,VALID,0,VALID,96.5506,VALID,0.107441,VALID,20.0343,VALID,44,VALID,0,
2013-12-06, 01:15:04,VALID,914.544,VALID,0,VALID,96.5658,VALID,0.107441,VALID,20.0148,VALID,44,VALID,0,
2013-12-06, 01:16:04,VALID,914.541,VALID,0,VALID,96.5811,VALID,0.107441,VALID,20.0343,VALID,44,VALID,0,
2013-12-06, 01:17:04,VALID,914.517,VALID,0,VALID,96.6115,VALID,0,VALID,20.0538,VALID,44,VALID,0,
2013-12-06, 01:18:04,VALID,914.506,VALID,0,VALID,96.6268,VALID,0.107441,VALID,20.0733,VALID,44,VALID,0,
2013-12-06, 01:19:04,VALID,914.495,VALID,0,VALID,96.6497,VALID,0,VALID,20.0928,VALID,44,VALID,0,
2013-12-06, 01:20:04,VALID,914.502,VALID,0,VALID,96.6649,VALID,0,VALID,20.1123,VALID,44,VALID,0,
2013-12-06, 01:21:04,VALID,914.483,VALID,0,VALID,96.6649,VALID,0.107441,VALID,20.0913,VALID,44,VALID,0,
2013-12-06, 01:22:04,VALID,914.463,VALID,0,VALID,96.6954,VALID,0.107441,VALID,20.0913,VALID,44,VALID,0,
2013-12-06, 01:23:04,VALID,914.453,VALID,0,VALID,96.7107,VALID,0.107441,VALID,20.0928,VALID,44,VALID,0,
2013-12-06, 01:24:04,VALID,914.44,VALID,0,VALID,96.6954,VALID,0,VALID,20.0928,VALID,44,VALID,0,
2013-12-06, 01:25:04,VALID,914.44,VALID,0,VALID,96.7335,VALID,0,VALID,20.0928,VALID,44,VALID,0,
2013-12-06, 01:26:04,VALID,914.422,VALID,0,VALID,96.7335,VALID,0.107441,VALID,20.1334,VALID,44,VALID,0,
2013-12-06, 01:27:04,VALID,914.384,VALID,0,VALID,96.7411,VALID,0.107441,VALID,20.1529,VALID,44,VALID,0,
2013-12-06, 01:28:04,VALID,914.346,VALID,0,VALID,96.7488,VALID,0,VALID,20.1318,VALID,44,VALID,0,
2013-12-06, 01:29:04,VALID,914.31,VALID,0,VALID,96.7488,VALID,0.107441,VALID,20.1123,VALID,44,VALID,0,
2013-12-06, 01:30:04,VALID,914.293,VALID,0,VALID,96.7488,VALID,0,VALID,20.1123,VALID,44,VALID,0,
2013-12-06, 01:31:04,VALID,914.239,VALID,0,VALID,96.7716,VALID,0.107441,VALID,20.1318,VALID,44,VALID,0,
2013-12-06, 01:32:04,VALID,914.251,VALID,0,VALID,96.7716,VALID,0.107441,VALID,20.1123,VALID,44,VALID,0,
2013-12-06, 01:33:04,VALID,914.234,VALID,0,VALID,96.8021,VALID,0,VALID,20.1513,VALID,44,VALID,0,
2013-12-06, 01:34:04,VALID,914.229,VALID,0,VALID,96.7869,VALID,0.107441,VALID,20.1123,VALID,44,VALID,0,
2013-12-06, 01:35:04,VALID,914.197,VALID,0,VALID,96.8021,VALID,0.107441,VALID,20.1123,VALID,44,VALID,0,
2013-12-06, 01:36:04,VALID,914.194,VALID,0,VALID,96.8174,VALID,0,VALID,20.1334,VALID,44,VALID,0,
2013-12-06, 01:37:04,VALID,914.2,VALID,0,VALID,96.7869,VALID,0.107441,VALID,20.1318,VALID,44,VALID,0,
2013-12-06, 01:38:04,VALID,914.213,VALID,0,VALID,96.825,VALID,0,VALID,20.1318,VALID,44,VALID,0,
2013-12-06, 01:39:04,VALID,914.182,VALID,0,VALID,96.825,VALID,0,VALID,20.1318,VALID,44,VALID,0,
2013-12-06, 01:40:04,VALID,914.198,VALID,0,VALID,96.8326,VALID,0.107441,VALID,20.0718,VALID,44,VALID,0,
2013-12-06, 01:41:04,VALID,914.192,VALID,0,VALID,96.8326,VALID,0,VALID,20.0538,VALID,44,VALID,0,
2013-12-06, 01:42:04,VALID,914.174,VALID,0,VALID,96.8479,VALID,0,VALID,20.0538,VALID,44,VALID,0,
2013-12-06, 01:43:04,VALID,914.196,VALID,0,VALID,96.8326,VALID,0,VALID,20.0163,VALID,44,VALID,0,
2013-12-06, 01:44:04,VALID,914.182,VALID,0,VALID,96.8631,VALID,0,VALID,20.0163,VALID,44,VALID,0,
2013-12-06, 01:45:04,VALID,914.146,VALID,0,VALID,96.8555,VALID,0,VALID,20.0374,VALID,44,VALID,0,
2013-12-06, 01:46:04,VALID,914.133,VALID,0,VALID,96.8631,VALID,0,VALID,20.0148,VALID,44,VALID,0,
2013-12-06, 01:47:04,VALID,914.145,VALID,0,VALID,96.8707,VALID,0,VALID,20.0569,VALID,44,VALID,0,
2013-12-06, 01:48:04,VALID,914.114,VALID,0,VALID,96.886,VALID,0,VALID,20.0358,VALID,44,VALID,0,
2013-12-06, 01:49:04,VALID,914.121,VALID,0,VALID,96.8784,VALID,0,VALID,20.0358,VALID,44,VALID,0,
2013-12-06, 01:50:04,VALID,914.095,VALID,0,VALID,96.9012,VALID,0,VALID,19.9968,VALID,44,VALID,0,
2013-12-06, 01:51:04,VALID,914.087,VALID,0,VALID,96.9012,VALID,0,VALID,19.9563,VALID,44,VALID,0,
2013-12-06, 01:52:04,VALID,914.058,VALID,0,VALID,96.8936,VALID,0,VALID,19.9773,VALID,44,VALID,0,
2013-12-06, 01:53:04,VALID,914.025,VALID,0,VALID,96.8936,VALID,0,VALID,19.9773,VALID,43,VALID,0,
2013-12-06, 01:54:04,VALID,914.003,VALID,0,VALID,96.9241,VALID,0,VALID,19.9563,VALID,39,VALID,0,
2013-12-06, 01:55:04,VALID,913.999,VALID,0,VALID,96.9089,VALID,0,VALID,19.9984,VALID,39,VALID,0,
2013-12-06, 01:56:04,VALID,913.995,VALID,0,VALID,96.9165,VALID,0,VALID,19.9773,VALID,39,VALID,0,
2013-12-06, 01:57:04,VALID,913.954,VALID,0,VALID,96.9165,VALID,0,VALID,20.0179,VALID,44,VALID,0,
2013-12-06, 01:58:04,VALID,913.943,VALID,0,VALID,96.9241,VALID,0,VALID,19.9953,VALID,44,VALID,0,
2013-12-06, 01:59:04,VALID,913.926,VALID,0,VALID,96.9394,VALID,0,VALID,19.9953,VALID,44,VALID,0,
2013-12-06, 02:00:04,VALID,913.896,VALID,0,VALID,96.9394,VALID,0,VALID,19.9953,VALID,44,VALID,0,
2013-12-06, 02:01:04,VALID,913.868,VALID,0,VALID,96.9546,VALID,0,VALID,19.9578,VALID,44,VALID,0,
2013-12-06, 02:02:04,VALID,913.86,VALID,0,VALID,96.9317,VALID,0,VALID,19.9383,VALID,44,VALID,0,
2013-12-06, 02:03:04,VALID,913.857,VALID,0,VALID,96.947,VALID,0,VALID,19.9188,VALID,44,VALID,0,
2013-12-06, 02:04:04,VALID,913.827,VALID,0,VALID,96.947,VALID,0,VALID,19.8588,VALID,44,VALID,0,
2013-12-06, 02:05:04,VALID,913.807,VALID,0,VALID,96.9698,VALID,0,VALID,19.8588,VALID,44,VALID,0,
2013-12-06, 02:06:04,VALID,913.811,VALID,0,VALID,96.9698,VALID,0,VALID,19.8798,VALID,44,VALID,0,
2013-12-06, 02:07:04,VALID,913.795,VALID,0,VALID,96.9851,VALID,0,VALID,19.8393,VALID,44,VALID,0,
2013-12-06, 02:08:04,VALID,913.786,VALID,0,VALID,96.9775,VALID,0,VALID,19.8603,VALID,44,VALID,0,
2013-12-06, 02:09:04,VALID,913.805,VALID,0,VALID,96.9851,VALID,0,VALID,19.8393,VALID,44,VALID,0,
2013-12-06, 02:10:04,VALID,913.784,VALID,0,VALID,96.9851,VALID,0,VALID,19.8603,VALID,44,VALID,0,
2013-12-06, 02:11:04,VALID,913.83,VALID,0,VALID,96.9851,VALID,0.107441,VALID,19.8783,VALID,44,VALID,0,
2013-12-06, 02:12:04,VALID,913.83,VALID,0,VALID,96.9927,VALID,0.107441,VALID,19.8588,VALID,44,VALID,0,
2013-12-06, 02:13:04,VALID,913.871,VALID,0,VALID,96.9851,VALID,0,VALID,19.8783,VALID,44,VALID,0,
2013-12-06, 02:14:04,VALID,913.869,VALID,0,VALID,96.9927,VALID,0,VALID,19.8978,VALID,43,VALID,0,
2013-12-06, 02:15:04,VALID,913.877,VALID,0,VALID,97.0003,VALID,0,VALID,19.8783,VALID,44,VALID,0,
2013-12-06, 02:16:04,VALID,913.875,VALID,0,VALID,96.9927,VALID,0,VALID,19.8588,VALID,43,VALID,0,
2013-12-06, 02:17:04,VALID,913.854,VALID,0,VALID,97.008,VALID,0,VALID,19.8783,VALID,44,VALID,0,
2013-12-06, 02:18:04,VALID,913.811,VALID,0,VALID,97.008,VALID,0,VALID,19.8978,VALID,43,VALID,0,
2013-12-06, 02:19:04,VALID,913.818,VALID,0,VALID,97.0156,VALID,0,VALID,19.9188,VALID,44,VALID,0,
2013-12-06, 02:20:04,VALID,913.806,VALID,0,VALID,97.008,VALID,0,VALID,19.8978,VALID,44,VALID,0,
2013-12-06, 02:21:04,VALID,913.759,VALID,0,VALID,97.0232,VALID,0.107441,VALID,19.8978,VALID,44,VALID,0,
2013-12-06, 02:22:04,VALID,913.773,VALID,0,VALID,97.0232,VALID,0,VALID,19.8783,VALID,166,VALID,0,
2013-12-06, 02:23:04,VALID,913.791,VALID,0,VALID,97.0156,VALID,0,VALID,19.8783,VALID,166,VALID,0,
2013-12-06, 02:24:04,VALID,913.757,VALID,0,VALID,97.0308,VALID,0,VALID,19.8783,VALID,166,VALID,0,
2013-12-06, 02:25:04,VALID,913.76,VALID,0,VALID,97.0385,VALID,0,VALID,19.8783,VALID,122,VALID,0,
2013-12-06, 02:26:04,VALID,913.745,VALID,0,VALID,97.0385,VALID,0,VALID,19.8783,VALID,164,VALID,0,
2013-12-06, 02:27:04,VALID,913.778,VALID,0,VALID,97.0537,VALID,0,VALID,19.8978,VALID,163,VALID,0,
2013-12-06, 02:28:04,VALID,913.76,VALID,0,VALID,97.0308,VALID,0.107441,VALID,19.9188,VALID,168,VALID,0,
2013-12-06, 02:29:04,VALID,913.77,VALID,0,VALID,97.0613,VALID,0,VALID,19.8783,VALID,166,VALID,0,
2013-12-06, 02:30:04,VALID,913.753,VALID,0,VALID,97.0461,VALID,0,VALID,19.8978,VALID,143,VALID,0,
2013-12-06, 02:31:04,VALID,913.759,VALID,0,VALID,97.0461,VALID,0.107441,VALID,19.8978,VALID,142,VALID,0,
2013-12-06, 02:32:04,VALID,913.746,VALID,0,VALID,97.0461,VALID,0,VALID,19.8978,VALID,130,VALID,0,
2013-12-06, 02:33:04,VALID,913.71,VALID,0,VALID,97.0461,VALID,0,VALID,19.8783,VALID,172,VALID,0,
2013-12-06, 02:34:04,VALID,913.724,VALID,0,VALID,97.0613,VALID,0.107441,VALID,19.8978,VALID,154,VALID,0,
2013-12-06, 02:35:04,VALID,913.739,VALID,0,VALID,97.0461,VALID,0,VALID,19.8783,VALID,145,VALID,0,
2013-12-06, 02:36:04,VALID,913.736,VALID,0,VALID,97.0537,VALID,0.107441,VALID,19.9173,VALID,160,VALID,0,
2013-12-06, 02:37:04,VALID,913.726,VALID,0,VALID,97.0613,VALID,0.107441,VALID,19.9173,VALID,177,VALID,0,
2013-12-06, 02:38:04,VALID,913.739,VALID,0,VALID,97.0613,VALID,0,VALID,19.8963,VALID,152,VALID,0,
2013-12-06, 02:39:04,VALID,913.7,VALID,0,VALID,97.0766,VALID,0,VALID,19.8783,VALID,133,VALID,0,
2013-12-06, 02:40:04,VALID,913.724,VALID,0,VALID,97.0766,VALID,0,VALID,19.9188,VALID,141,VALID,0,
2013-12-06, 02:41:04,VALID,913.743,VALID,0,VALID,97.069,VALID,0,VALID,19.9188,VALID,166,VALID,0,
2013-12-06, 02:42:04,VALID,913.727,VALID,0,VALID,97.0613,VALID,0,VALID,19.8978,VALID,136,VALID,0,
2013-12-06, 02:43:04,VALID,913.756,VALID,0,VALID,97.0918,VALID,0,VALID,19.8783,VALID,155,VALID,0,
2013-12-06, 02:44:04,VALID,913.76,VALID,0,VALID,97.0842,VALID,0.107441,VALID,19.8588,VALID,159,VALID,0,
2013-12-06, 02:45:04,VALID,913.764,VALID,0,VALID,97.0918,VALID,0,VALID,19.8588,VALID,162,VALID,0,
2013-12-06, 02:46:04,VALID,913.786,VALID,0,VALID,97.0613,VALID,0,VALID,19.8588,VALID,171,VALID,0,
2013-12-06, 02:47:04,VALID,913.725,VALID,0,VALID,97.0842,VALID,0,VALID,19.8378,VALID,168,VALID,0,
2013-12-06, 02:48:04,VALID,913.722,VALID,0,VALID,97.0918,VALID,0,VALID,19.8783,VALID,170,VALID,0,
2013-12-06, 02:49:04,VALID,913.705,VALID,0,VALID,97.0994,VALID,0,VALID,19.8798,VALID,169,VALID,0,
2013-12-06, 02:50:04,VALID,913.666,VALID,0,VALID,97.0918,VALID,0.107441,VALID,19.8393,VALID,164,VALID,0,
2013-12-06, 02:51:04,VALID,913.663,VALID,0,VALID,97.1071,VALID,0,VALID,19.8798,VALID,183,VALID,0,
2013-12-06, 02:52:04,VALID,913.671,VALID,0,VALID,97.1147,VALID,0.107441,VALID,19.8393,VALID,152,VALID,0,
2013-12-06, 02:53:04,VALID,913.648,VALID,0,VALID,97.1071,VALID,0,VALID,19.8198,VALID,163,VALID,0,
2013-12-06, 02:54:04,VALID,913.679,VALID,0,VALID,97.0994,VALID,0,VALID,19.8393,VALID,171,VALID,0,
2013-12-06, 02:55:04,VALID,913.657,VALID,0,VALID,97.0994,VALID,0.107441,VALID,19.8393,VALID,171,VALID,0,
2013-12-06, 02:56:04,VALID,913.626,VALID,0,VALID,97.1071,VALID,0,VALID,19.8603,VALID,175,VALID,0,
2013-12-06, 02:57:04,VALID,913.637,VALID,0,VALID,97.0994,VALID,0,VALID,19.8198,VALID,171,VALID,0,
2013-12-06, 02:58:04,VALID,913.601,VALID,0,VALID,97.1299,VALID,0.107441,VALID,19.8003,VALID,181,VALID,0,
2013-12-06, 02:59:04,VALID,913.586,VALID,0,VALID,97.1299,VALID,0.107441,VALID,19.8198,VALID,177,VALID,0,
2013-12-06, 03:00:04,VALID,913.555,VALID,0,VALID,97.1223,VALID,0.107441,VALID,19.8198,VALID,174,VALID,0,
2013-12-06, 03:01:04,VALID,913.551,VALID,0,VALID,97.1147,VALID,0.107441,VALID,19.8003,VALID,177,VALID,0,
2013-12-06, 03:02:04,VALID,913.537,VALID,0,VALID,97.1071,VALID,0,VALID,19.8018,VALID,176,VALID,0,
2013-12-06, 03:03:04,VALID,913.581,VALID,0,VALID,97.1147,VALID,0,VALID,19.8018,VALID,172,VALID,0,
2013-12-06, 03:04:04,VALID,913.578,VALID,0,VALID,97.1147,VALID,0,VALID,19.7823,VALID,170,VALID,0,
2013-12-06, 03:05:04,VALID,913.565,VALID,0,VALID,97.1223,VALID,0,VALID,19.8018,VALID,156,VALID,0,
2013-12-06, 03:06:04,VALID,913.571,VALID,0,VALID,97.0994,VALID,0,VALID,19.7808,VALID,166,VALID,0,
2013-12-06, 03:07:04,VALID,913.605,VALID,0,VALID,97.0842,VALID,0,VALID,19.8018,VALID,156,VALID,0,
2013-12-06, 03:08:04,VALID,913.642,VALID,0,VALID,97.0766,VALID,0,VALID,19.8003,VALID,152,VALID,0,
2013-12-06, 03:09:04,VALID,913.633,VALID,0,VALID,97.0918,VALID,0,VALID,19.8213,VALID,147,VALID,0,
2013-12-06, 03:10:04,VALID,913.643,VALID,0,VALID,97.0766,VALID,0,VALID,19.8408,VALID,138,VALID,0,
2013-12-06, 03:11:04,VALID,913.652,VALID,0,VALID,97.0766,VALID,0,VALID,19.8213,VALID,135,VALID,0,
2013-12-06, 03:12:04,VALID,913.67,VALID,0,VALID,97.069,VALID,0,VALID,19.8408,VALID,147,VALID,0,
2013-12-06, 03:13:04,VALID,913.66,VALID,0,VALID,97.0232,VALID,0,VALID,19.8588,VALID,150,VALID,0,
2013-12-06, 03:14:04,VALID,913.657,VALID,0,VALID,97.0003,VALID,0,VALID,19.8588,VALID,154,VALID,0,
2013-12-06, 03:15:04,VALID,913.659,VALID,0,VALID,97.008,VALID,0.107441,VALID,19.8783,VALID,166,VALID,0,
2013-12-06, 03:16:04,VALID,913.665,VALID,0,VALID,96.9927,VALID,0,VALID,19.8993,VALID,174,VALID,0,
2013-12-06, 03:17:04,VALID,913.654,VALID,0,VALID,96.9775,VALID,0,VALID,19.8783,VALID,171,VALID,0,
2013-12-06, 03:18:04,VALID,913.669,VALID,0,VALID,96.9775,VALID,0,VALID,19.8783,VALID,167,VALID,0,
2013-12-06, 03:19:04,VALID,913.682,VALID,0,VALID,96.9546,VALID,0,VALID,19.8783,VALID,169,VALID,0,
2013-12-06, 03:20:04,VALID,913.686,VALID,0,VALID,96.9394,VALID,0,VALID,19.8588,VALID,168,VALID,0,
2013-12-06, 03:21:04,VALID,913.698,VALID,0,VALID,96.9317,VALID,0,VALID,19.8588,VALID,168,VALID,0,
2013-12-06, 03:22:04,VALID,913.69,VALID,0,VALID,96.9394,VALID,0,VALID,19.8378,VALID,168,VALID,0,
2013-12-06, 03:23:04,VALID,913.697,VALID,0,VALID,96.9241,VALID,0,VALID,19.8393,VALID,168,VALID,0,
2013-12-06, 03:24:04,VALID,913.697,VALID,0,VALID,96.9089,VALID,0,VALID,19.8588,VALID,168,VALID,0,
2013-12-06, 03:25:04,VALID,913.639,VALID,0,VALID,96.9165,VALID,0,VALID,19.8588,VALID,168,VALID,0,
2013-12-06, 03:26:04,VALID,913.67,VALID,0,VALID,96.8784,VALID,0.107441,VALID,19.8588,VALID,168,VALID,0,
2013-12-06, 03:27:04,VALID,913.663,VALID,0,VALID,96.9012,VALID,0.107441,VALID,19.8378,VALID,168,VALID,0,
2013-12-06, 03:28:04,VALID,913.652,VALID,0,VALID,96.886,VALID,0,VALID,19.8408,VALID,168,VALID,0,
2013-12-06, 03:29:04,VALID,913.65,VALID,0,VALID,96.886,VALID,0,VALID,19.8603,VALID,168,VALID,0,
2013-12-06, 03:30:04,VALID,913.644,VALID,0,VALID,96.8784,VALID,0,VALID,19.8198,VALID,197,VALID,0,
2013-12-06, 03:31:04,VALID,913.649,VALID,0,VALID,96.8707,VALID,0,VALID,19.8813,VALID,199,VALID,0,
2013-12-06, 03:32:04,VALID,913.634,VALID,0,VALID,96.8555,VALID,0,VALID,19.8408,VALID,199,VALID,0,
2013-12-06, 03:33:04,VALID,913.642,VALID,0,VALID,96.8479,VALID,0,VALID,19.8603,VALID,199,VALID,0,
2013-12-06, 03:34:04,VALID,913.656,VALID,0,VALID,96.8479,VALID,0,VALID,19.8798,VALID,199,VALID,0,
2013-12-06, 03:35:04,VALID,913.692,VALID,0,VALID,96.825,VALID,0,VALID,19.8813,VALID,199,VALID,0,
2013-12-06, 03:36:04,VALID,913.683,VALID,0,VALID,96.8098,VALID,0,VALID,19.8798,VALID,199,VALID,0,
2013-12-06, 03:37:04,VALID,913.667,VALID,0,VALID,96.8174,VALID,0,VALID,19.8783,VALID,199,VALID,0,
2013-12-06, 03:38:04,VALID,913.672,VALID,0,VALID,96.7945,VALID,0,VALID,19.8993,VALID,199,VALID,0,
2013-12-06, 03:39:04,VALID,913.68,VALID,0,VALID,96.7945,VALID,0,VALID,19.9188,VALID,199,VALID,0,
2013-12-06, 03:40:04,VALID,913.66,VALID,0,VALID,96.8021,VALID,0,VALID,19.8783,VALID,199,VALID,0,
2013-12-06, 03:41:04,VALID,913.654,VALID,0,VALID,96.7793,VALID,0,VALID,19.8783,VALID,199,VALID,0,
2013-12-06, 03:42:04,VALID,913.646,VALID,0,VALID,96.764,VALID,0,VALID,19.8783,VALID,199,VALID,0,
2013-12-06, 03:43:04,VALID,913.657,VALID,0,VALID,96.7488,VALID,0,VALID,19.8798,VALID,134,VALID,0,
2013-12-06, 03:44:04,VALID,913.663,VALID,0,VALID,96.7869,VALID,0,VALID,19.8393,VALID,134,VALID,0,
2013-12-06, 03:45:04,VALID,913.648,VALID,0,VALID,96.764,VALID,0,VALID,19.7793,VALID,134,VALID,0,
2013-12-06, 03:46:04,VALID,913.646,VALID,0,VALID,96.764,VALID,0,VALID,19.7613,VALID,134,VALID,0,
2013-12-06, 03:47:04,VALID,913.648,VALID,0,VALID,96.764,VALID,0,VALID,19.7628,VALID,134,VALID,0,
2013-12-06, 03:48:04,VALID,913.593,VALID,0,VALID,96.7488,VALID,0,VALID,19.7838,VALID,134,VALID,0,
2013-12-06, 03:49:04,VALID,913.596,VALID,0,VALID,96.7869,VALID,0,VALID,19.7403,VALID,134,VALID,0,
2013-12-06, 03:50:04,VALID,913.589,VALID,0,VALID,96.8021,VALID,0,VALID,19.7418,VALID,133,VALID,0,
2013-12-06, 03:51:04,VALID,913.579,VALID,0,VALID,96.8021,VALID,0,VALID,19.7838,VALID,134,VALID,0,
2013-12-06, 03:52:04,VALID,913.609,VALID,0,VALID,96.8021,VALID,0,VALID,19.7823,VALID,134,VALID,0,
2013-12-06, 03:53:04,VALID,913.612,VALID,0,VALID,96.825,VALID,0,VALID,19.7628,VALID,134,VALID,0,
2013-12-06, 03:54:04,VALID,913.614,VALID,0,VALID,96.8479,VALID,0,VALID,19.7643,VALID,134,VALID,0,
2013-12-06, 03:55:04,VALID,913.627,VALID,0,VALID,96.825,VALID,0,VALID,19.7433,VALID,134,VALID,0,
2013-12-06, 03:56:04,VALID,913.609,VALID,0,VALID,96.8326,VALID,0,VALID,19.7643,VALID,146,VALID,0,
2013-12-06, 03:57:04,VALID,913.593,VALID,0,VALID,96.8326,VALID,0,VALID,19.7223,VALID,146,VALID,0,
2013-12-06, 03:58:04,VALID,913.534,VALID,0,VALID,96.825,VALID,0,VALID,19.7448,VALID,146,VALID,0,